RH
59 50 58 64 70 56 49 49 48 48 42 44 53 65 45 34 31 25 24 22 17 11 7 3 2 2 3 4 6 6 8 12 16 28 36 88 100 100 100 100 99 87 94 98 95
47 51 51 62 94 85 59 55 54 54 41 38 68 62 38 31 31 24 25 21 18 12 8 2 2 2 2 3 4 6 7 11 15 23 37 48 87 100 100 100 89 90 100 98 85
46 42 48 44 100 99 67 65 66 56 44 45 72 45 32 28 32 29 23 21 18 14 9 3 2 2 2 2 3 4 7 9 13 16 32 31 56 100 97 92 79 72 90 100 100
50 45 60 49 100 93 69 73 78 55 48 56 59 42 34 29 33 30 24 24 19 17 12 6 3 3 2 2 2 3 4 9 11 14 20 32 34 80 100 94 100 90 99 100 100
55 49 57 63 100 64 84 84 76 60 54 54 54 44 38 31 34 30 28 26 22 19 15 9 4 4 3 2 2 3 4 8 10 12 15 33 34 57 100 94 92 100 99 100 100
62 44 80 95 81 59 85 99 71 62 58 63 58 48 38 34 37 33 30 28 25 21 18 13 8 4 4 3 2 3 3 5 11 11 13 23 42 30 100 100 96 97 100 100 100
78 48 100 100 90 76 94 97 84 65 63 74 52 53 40 38 39 38 33 31 26 23 21 18 10 6 4 4 3 3 3 3 8 11 13 17 43 33 63 98 100 100 99 100 100
99 89 76 71 66 59 92 93 78 70 79 64 53 48 48 41 42 42 36 32 31 26 23 21 16 9 5 6 4 3 3 3 6 10 12 17 35 42 72 100 100 100 100 100 100
100 100 98 90 73 54 95 66 79 70 88 82 72 52 49 43 41 43 40 38 33 28 28 23 22 16 8 6 5 4 3 3 4 10 11 16 30 40 60 100 97 89 100 100 100
100 100 100 77 74 57 51 100 100 90 95 94 68 65 53 46 47 43 46 40 35 37 32 24 32 22 14 9 8 5 4 4 5 10 11 15 22 37 100 100 66 100 100 100 100
100 100 100 90 89 71 70 100 94 50 100 99 66 65 59 53 54 50 50 42 43 39 34 28 25 26 25 15 10 8 5 4 5 8 12 16 19 35 100 100 100 100 100 100 100
85 100 100 100 88 66 100 98 74 92 100 74 97 68 58 58 63 50 49 51 45 43 37 31 30 29 28 25 17 10 8 5 6 8 14 15 17 21 92 100 100 91 95 100 100
87 98 100 100 100 100 100 98 68 100 82 97 90 72 60 60 69 66 64 62 53 48 43 37 31 30 35 33 26 18 11 8 7 8 15 14 16 19 23 42 82 95 53 81 99
99 90 100 100 100 100 100 100 84 100 99 99 97 98 67 56 70 60 72 68 61 51 46 44 35 32 31 32 33 24 17 12 9 9 16 16 14 16 19 25 33 42 35 58 100
94 98 100 100 100 100 100 100 100 100 100 100 99 97 51 50 50 58 69 67 64 59 48 44 41 33 36 35 35 34 22 18 12 11 13 17 16 15 18 20 28 38 36 45 100
82 100 79 99 100 100 100 100 100 100 100 100 89 63 47 44 53 62 68 68 71 64 59 45 41 38 33 37 36 34 33 23 19 14 13 17 18 15 16 19 25 33 36 53 100
100 100 84 85 100 100 100 100 100 100 100 100 91 73 51 50 54 76 76 62 75 77 60 55 44 40 34 38 48 40 36 35 26 21 16 16 18 18 17 18 21 24 29 36 73
100 100 90 66 100 100 100 100 100 100 100 100 98 92 65 54 58 73 64 55 77 73 58 56 52 42 39 36 38 43 40 36 36 30 25 19 20 20 19 18 18 20 23 28 36
100 100 97 87 94 100 100 100 100 100 99 98 100 92 70 71 77 67 62 75 86 52 54 61 51 47 43 38 40 45 49 40 34 37 33 28 22 23 27 23 19 19 20 24 30
100 100 95 83 99 100 100 100 100 98 84 98 98 82 67 90 85 68 80 87 60 49 62 54 54 53 56 55 38 44 54 59 42 43 43 37 32 26 27 30 28 22 22 24 27
100 95 75 97 97 100 100 100 100 94 86 90 69 62 71 83 88 98 99 82 57 48 51 49 51 59 76 77 49 47 52 50 46 37 38 45 39 34 33 27 33 33 28 29 27
90 74 66 84 100 100 100 90 87 80 83 100 88 88 96 96 98 93 86 80 54 46 44 46 49 58 92 75 57 52 52 56 51 46 42 40 49 40 41 38 28 32 37 31 34
76 75 77 79 90 93 92 96 86 66 74 100 89 100 100 100 98 89 85 70 49 43 41 44 50 68 93 69 55 47 52 67 64 52 52 49 43 44 39 46 43 45 30 35 37
87 93 93 78 80 97 99 100 99 76 92 100 100 100 97 100 93 100 88 78 53 46 45 43 47 80 77 57 58 46 43 42 53 66 67 56 52 47 48 43 42 43 45 46 33
100 100 100 100 100 100 100 100 99 91 89 95 100 100 100 100 100 100 100 77 51 77 59 47 53 56 80 58 76 57 51 47 46 46 49 58 48 45 45 48 43 41 40 45 46
90 99 100 99 100 99 100 100 100 100 75 86 100 100 100 100 99 100 81 58 46 61 48 55 60 72 86 74 64 74 71 73 70 53 43 42 46 55 49 42 46 49 41 38 42
87 93 100 100 100 100 100 100 100 89 100 100 100 100 96 100 99 88 83 85 69 61 59 71 65 72 94 88 81 89 88 81 91 73 51 47 37 43 46 42 42 42 45 46 40
Wind_Speed
21 26 29 32 30 30 34 37 40 41 47 49 54 58 64 63 61 65 62 63 66 65 62 47 36 34 41 56 65 68 76 78 83 84 75 91 91 87 82 84 74 68 63 67 66
24 28 31 34 33 31 36 38 42 43 48 51 54 58 65 64 63 66 66 65 67 67 63 46 32 27 31 43 58 65 66 77 87 89 88 95 91 86 80 80 71 74 67 70 64
28 27 31 34 33 32 38 39 41 44 48 51 54 59 64 63 65 67 66 67 70 69 67 52 34 25 24 33 48 59 65 79 87 99 100 92 86 87 67 74 75 69 65 63 62
28 28 30 32 31 35 38 41 40 45 49 50 55 60 64 65 64 68 68 70 72 71 69 60 40 28 20 25 37 51 61 78 92 92 94 88 81 82 65 62 73 70 72 68 61
31 29 32 31 31 35 38 41 41 45 49 50 55 59 63 66 64 70 70 71 74 72 71 67 50 31 20 18 29 44 57 75 88 88 92 91 86 85 83 67 65 74 72 72 68
35 35 31 27 30 36 38 41 42 45 48 51 54 57 63 65 66 68 70 72 72 74 72 70 59 39 24 15 20 34 52 67 82 87 89 93 90 82 87 69 61 70 78 72 70
28 28 29 27 31 36 39 39 40 44 48 51 54 56 62 64 66 68 72 71 72 74 74 71 67 50 30 16 15 23 42 60 74 85 89 93 89 83 83 52 60 61 80 75 71
36 33 32 37 36 39 40 36 40 45 47 49 52 58 63 61 64 65 70 72 73 74 76 72 71 61 40 26 11 15 30 51 68 82 87 92 92 89 86 70 71 69 74 77 70
38 33 32 34 36 36 36 43 41 41 44 47 51 56 59 58 60 65 70 72 73 74 77 72 73 71 55 35 16 9 20 40 61 80 86 93 101 88 79 66 74 78 80 72 75
39 34 30 31 33 35 36 35 37 38 42 44 51 55 56 59 60 64 67 68 72 74 73 74 70 68 66 51 31 11 13 32 54 74 84 94 99 91 84 53 60 72 78 72 73
41 41 37 36 31 34 38 32 34 42 38 46 51 53 57 57 59 63 63 66 68 72 74 73 72 69 69 62 43 23 6 25 50 67 85 95 100 104 101 79 68 70 72 73 71
32 37 37 30 29 34 34 33 36 37 39 47 47 52 55 58 58 61 60 65 69 70 72 72 73 67 66 66 57 36 14 16 42 63 85 94 100 108 113 96 79 70 78 77 70
35 32 33 27 25 28 33 35 35 38 42 42 49 52 55 57 57 57 59 64 66 67 68 70 68 68 63 62 61 50 28 4 30 55 82 91 97 103 104 109 107 86 76 77 76
37 37 34 31 28 31 32 36 38 37 41 44 47 47 54 57 58 55 57 60 63 64 64 63 66 65 61 57 56 54 40 16 15 42 74 86 91 96 99 105 98 95 88 80 75
37 34 34 35 30 32 33 34 38 37 40 42 41 43 53 53 55 54 56 60 61 63 62 62 62 62 59 55 52 51 47 34 7 23 55 77 83 87 94 97 97 95 88 84 84
37 34 35 32 33 30 34 34 36 36 41 37 42 47 50 51 49 52 56 57 60 62 59 59 59 59 55 52 48 47 46 41 26 6 33 64 76 81 85 90 95 95 91 90 93
34 35 35 35 34 32 33 28 34 38 40 41 45 49 50 50 48 53 54 53 56 62 60 55 55 53 52 47 45 41 41 40 38 21 13 39 66 75 79 85 91 92 93 94 92
31 33 32 35 33 28 28 31 33 38 43 44 47 48 52 51 51 52 52 50 55 59 58 51 50 49 43 45 42 39 37 35 35 33 19 18 42 67 75 79 84 89 92 94 93
32 34 36 34 30 27 30 37 39 39 41 43 46 50 52 52 51 50 52 54 57 58 55 53 51 48 45 38 40 35 35 34 30 29 28 19 19 44 70 78 79 83 88 91 93
33 38 39 34 26 29 35 40 41 42 43 43 47 52 51 49 51 52 50 54 59 58 52 51 51 43 43 42 33 35 31 30 29 26 24 22 18 14 46 73 83 81 83 88 90
34 37 36 32 29 35 38 40 41 42 42 44 46 44 47 49 52 48 51 56 58 53 46 47 47 40 37 45 31 29 31 32 31 27 22 18 18 14 6 39 71 85 85 85 87
34 35 36 32 33 35 36 40 37 36 36 43 46 47 49 50 49 54 55 57 56 46 45 48 42 39 38 43 38 30 23 26 25 25 21 19 15 13 12 8 26 59 89 90 91
35 34 33 36 40 43 45 46 46 46 43 47 50 51 51 54 57 59 56 58 57 48 45 46 40 35 37 39 41 33 25 30 30 25 24 19 15 20 12 11 10 12 43 75 97
41 39 40 41 43 45 47 50 52 48 46 46 50 54 57 62 60 58 57 56 55 47 45 48 47 41 44 41 42 34 32 26 25 27 30 22 29 17 23 20 13 13 15 22 54
43 44 43 48 49 50 52 50 52 53 53 50 53 58 61 62 59 62 59 59 53 52 53 51 49 43 52 46 49 47 42 39 36 33 30 33 29 22 20 24 26 25 24 21 25
43 47 46 47 52 54 57 54 57 57 59 54 60 64 66 63 65 66 61 63 59 52 57 52 53 48 45 53 51 52 50 51 52 44 37 33 33 30 30 26 24 30 34 34 32
47 45 50 54 55 54 55 57 63 64 64 61 62 66 67 70 67 68 65 60 56 62 56 57 59 55 48 56 52 52 55 55 52 51 47 42 38 34 37 35 31 32 30 37 40
Wind_Direction
323 331 328 332 325 332 333 336 339 339 339 341 343 341 341 343 341 341 341 339 337 333 332 326 305 273 249 238 235 231 227 222 215 212 214 212 212 215 217 224 223 231 227 228 228
327 328 328 325 319 329 335 335 336 336 339 341 343 341 344 344 346 347 346 345 344 342 344 338 321 287 256 240 231 228 221 220 216 210 211 216 210 215 218 224 220 226 223 229 231
325 323 329 327 318 327 331 330 330 332 336 340 341 342 345 345 347 348 350 351 352 350 352 350 337 309 271 242 231 226 216 214 215 210 209 213 211 209 221 229 225 224 227 231 231
317 320 320 322 314 325 327 328 327 332 335 339 340 342 345 346 349 351 353 356 356 356 358 359 350 330 292 248 229 221 216 211 215 213 208 211 210 201 210 227 226 226 225 228 230
317 319 317 316 315 322 325 324 326 333 336 337 340 343 343 346 350 353 355 358 0 1 2 5 360 347 315 264 228 220 215 212 214 211 207 206 210 206 204 219 221 222 228 226 228
308 316 311 316 317 326 323 319 325 332 335 335 339 342 343 347 351 353 355 358 1 4 5 7 8 360 340 289 237 220 216 212 211 211 207 204 207 208 204 214 226 222 225 228 227
309 311 309 316 321 325 319 318 323 332 333 334 338 341 344 349 350 353 356 359 1 4 7 9 12 10 360 328 262 225 216 210 207 209 206 203 204 206 202 196 228 227 224 224 226
299 303 301 304 310 316 314 317 322 328 330 334 339 342 346 348 351 353 356 359 1 4 8 9 12 14 11 359 302 237 216 209 203 204 205 201 202 203 202 203 228 226 225 219 224
294 300 298 303 311 319 316 318 321 326 331 334 338 343 346 347 351 354 356 359 0 4 8 9 15 14 16 11 351 259 216 206 202 201 201 200 200 198 200 214 224 213 215 215 224
290 294 303 307 311 315 316 319 323 325 330 335 339 340 344 347 351 352 357 358 1 3 4 10 12 15 17 18 10 334 223 204 200 199 199 200 200 193 191 212 210 200 202 208 216
290 294 299 302 303 314 315 312 320 329 324 333 334 339 345 346 349 354 354 358 358 360 2 7 10 16 16 18 16 7 278 204 199 199 197 200 200 194 195 190 193 199 200 210 215
304 297 299 301 306 314 314 309 321 326 323 328 331 339 343 345 347 351 356 357 357 359 359 4 7 13 16 17 20 17 1 212 199 198 196 201 202 200 202 211 212 200 204 211 215
301 299 292 289 304 310 312 315 325 319 320 326 328 337 341 343 344 351 353 357 358 357 357 1 4 9 14 15 17 23 15 265 204 200 198 202 204 206 205 210 217 214 213 211 212
299 304 289 286 290 307 311 312 318 318 319 323 329 336 338 342 342 344 349 354 356 357 356 359 359 5 9 13 15 18 24 12 220 206 202 205 206 208 208 212 214 216 217 213 206
306 298 288 286 289 302 309 313 316 314 316 321 327 332 337 339 341 344 347 351 355 355 357 357 356 0 3 7 12 15 20 24 352 219 209 209 209 210 211 213 214 215 216 216 212
302 293 291 284 289 297 305 309 312 313 318 324 325 334 337 337 342 341 344 347 350 353 352 354 355 356 360 1 8 13 15 21 22 262 219 215 213 213 213 215 216 216 216 217 217
291 287 292 286 286 297 307 313 311 311 323 324 330 332 334 338 339 340 341 344 347 347 348 349 352 353 356 358 360 8 13 12 19 21 234 221 220 219 217 217 218 218 218 218 221
280 282 286 292 288 305 309 302 303 310 319 324 326 328 329 333 336 338 338 343 343 344 345 344 348 347 354 354 355 358 5 11 8 20 20 233 224 225 223 223 222 222 222 222 222
273 278 285 290 287 305 296 295 298 301 306 316 320 322 325 327 332 336 339 339 337 341 343 340 344 345 349 355 350 352 356 1 7 11 20 21 237 226 227 229 228 226 226 225 226
276 272 280 286 282 287 289 289 295 299 304 308 309 314 321 324 325 334 335 332 334 339 339 338 340 341 344 348 352 346 348 350 359 4 5 17 21 252 230 229 231 232 231 230 228
268 273 278 287 286 286 291 294 295 301 303 305 312 319 319 322 324 329 326 329 335 337 340 338 337 336 343 341 349 346 342 341 342 349 352 353 2 3 320 237 232 234 234 233 234
274 279 280 278 285 289 287 295 298 301 309 313 313 316 317 318 324 325 323 328 331 333 336 334 336 332 338 340 334 339 330 330 332 332 334 335 330 340 345 338 243 235 235 236 236
279 279 289 283 284 288 292 296 298 295 302 309 311 311 312 315 319 322 322 324 327 327 332 335 331 334 330 331 331 326 330 329 328 326 319 320 318 314 308 313 296 267 240 237 237
290 287 279 285 287 297 300 300 300 301 304 303 304 307 309 310 315 318 318 319 322 326 329 336 335 337 329 332 334 322 326 330 319 324 320 316 306 300 295 287 275 274 271 255 242
277 284 288 290 293 295 294 295 294 294 296 300 300 300 304 308 311 315 313 313 319 322 323 327 335 346 328 333 330 327 325 326 326 321 314 311 304 289 289 283 277 266 261 260 261
293 281 276 283 286 289 288 286 289 289 298 297 298 299 301 305 308 310 310 309 315 316 321 324 330 337 323 332 326 319 318 319 320 315 313 311 308 309 294 283 282 279 271 263 257
291 287 276 280 283 286 286 290 290 293 296 294 293 295 300 302 305 307 307 308 314 316 319 321 322 324 322 322 326 316 315 316 315 311 313 312 310 310 307 299 291 280 276 275 267